TimeCST,TemperatureF,Dew PointF,Humidity,Sea Level PressureIn,VisibilityMPH,Wind Direction,Wind SpeedMPH,Gust SpeedMPH,PrecipitationIn,Events,Conditions,WindDirDegrees,DateUTC
12:15 AM,28.4,23.0,80,30.49,8.0,North,-9999.0,-,N/A,,Overcast,0,2014-02-06 06:15:00
12:35 AM,28.4,23.0,80,30.47,9.0,North,-9999.0,-,N/A,,Overcast,0,2014-02-06 06:35:00
12:55 AM,28.4,21.2,74,30.47,10.0,North,-9999.0,-,N/A,,Overcast,0,2014-02-06 06:55:00
1:15 AM,28.4,19.4,69,30.47,10.0,North,-9999.0,-,N/A,,Overcast,0,2014-02-06 07:15:00
1:35 AM,28.4,17.6,64,30.47,10.0,North,-9999.0,-,N/A,,Overcast,0,2014-02-06 07:35:00
1:55 AM,28.4,19.4,69,30.48,10.0,North,-9999.0,-,N/A,,Overcast,0,2014-02-06 07:55:00
2:15 AM,28.4,17.6,64,30.48,10.0,North,-9999.0,-,N/A,,Overcast,0,2014-02-06 08:15:00
2:35 AM,26.6,17.6,69,30.48,10.0,North,-9999.0,-,N/A,,Overcast,0,2014-02-06 08:35:00
2:55 AM,26.6,17.6,69,30.49,10.0,North,-9999.0,-,N/A,,Overcast,0,2014-02-06 08:55:00
3:15 AM,26.6,17.6,69,30.48,10.0,North,-9999.0,-,N/A,,Overcast,0,2014-02-06 09:15:00
3:35 AM,26.6,17.6,69,30.48,10.0,North,-9999.0,-,N/A,,Overcast,0,2014-02-06 09:35:00
3:55 AM,26.6,17.6,69,30.49,10.0,North,-9999.0,-,N/A,,Overcast,0,2014-02-06 09:55:00
4:15 AM,24.8,15.8,69,30.50,10.0,North,-9999.0,-,N/A,,Overcast,0,2014-02-06 10:15:00
4:35 AM,24.8,15.8,69,30.50,10.0,North,-9999.0,-,N/A,,Overcast,0,2014-02-06 10:35:00
4:55 AM,24.8,15.8,69,30.51,10.0,North,-9999.0,-,N/A,,Overcast,0,2014-02-06 10:55:00
5:15 AM,24.8,15.8,69,30.52,10.0,North,-9999.0,-,N/A,,Overcast,0,2014-02-06 11:15:00
5:35 AM,24.8,15.8,69,30.53,10.0,North,-9999.0,-,N/A,,Overcast,0,2014-02-06 11:35:00
5:55 AM,24.8,15.8,69,30.53,10.0,North,-9999.0,-,N/A,,Overcast,0,2014-02-06 11:55:00
6:15 AM,23.0,15.8,74,30.54,10.0,North,-9999.0,-,N/A,,Overcast,0,2014-02-06 12:15:00
6:35 AM,23.0,14.0,68,30.54,10.0,North,-9999.0,-,N/A,,Overcast,0,2014-02-06 12:35:00
6:55 AM,23.0,14.0,68,30.55,10.0,North,-9999.0,-,N/A,,Overcast,0,2014-02-06 12:55:00
7:15 AM,23.0,14.0,68,30.54,10.0,North,-9999.0,-,N/A,Snow,Light Snow,0,2014-02-06 13:15:00
7:35 AM,23.0,14.0,68,30.55,10.0,North,-9999.0,-,N/A,,Overcast,0,2014-02-06 13:35:00
7:55 AM,23.0,14.0,68,30.56,10.0,North,-9999.0,-,N/A,Snow,Light Snow,0,2014-02-06 13:55:00
8:15 AM,23.0,14.0,68,30.57,10.0,North,-9999.0,-,N/A,,Mostly Cloudy,0,2014-02-06 14:15:00
8:35 AM,23.0,14.0,68,30.57,10.0,North,-9999.0,-,N/A,,Overcast,0,2014-02-06 14:35:00
8:55 AM,23.0,14.0,68,30.56,10.0,North,-9999.0,-,N/A,,Overcast,0,2014-02-06 14:55:00
9:15 AM,23.0,14.0,68,30.57,10.0,North,-9999.0,-,N/A,,Overcast,0,2014-02-06 15:15:00
9:35 AM,23.0,14.0,68,30.58,10.0,North,-9999.0,-,N/A,,Mostly Cloudy,0,2014-02-06 15:35:00
9:55 AM,23.0,14.0,68,30.57,10.0,North,-9999.0,-,N/A,,Mostly Cloudy,0,2014-02-06 15:55:00
10:15 AM,24.8,14.0,64,30.56,10.0,North,-9999.0,-,N/A,,Mostly Cloudy,0,2014-02-06 16:15:00
10:35 AM,24.8,14.0,64,30.57,10.0,North,-9999.0,-,N/A,,Overcast,0,2014-02-06 16:35:00
10:55 AM,24.8,14.0,64,30.57,10.0,North,-9999.0,-,N/A,,Overcast,0,2014-02-06 16:55:00
11:15 AM,24.8,14.0,64,30.57,10.0,North,-9999.0,-,N/A,,Overcast,0,2014-02-06 17:15:00
11:35 AM,24.8,14.0,64,30.57,10.0,North,-9999.0,-,N/A,,Overcast,0,2014-02-06 17:35:00
11:55 AM,26.6,15.8,64,30.57,10.0,North,-9999.0,-,N/A,,Overcast,0,2014-02-06 17:55:00
12:15 PM,26.6,15.8,64,30.56,10.0,North,-9999.0,-,N/A,,Overcast,0,2014-02-06 18:15:00
12:35 PM,28.4,15.8,59,30.56,10.0,North,-9999.0,-,N/A,,Overcast,0,2014-02-06 18:35:00
12:55 PM,28.4,15.8,59,30.54,10.0,North,-9999.0,-,N/A,,Overcast,0,2014-02-06 18:55:00
1:15 PM,28.4,15.8,59,30.54,10.0,North,-9999.0,-,N/A,,Overcast,0,2014-02-06 19:15:00
1:35 PM,28.4,15.8,59,30.52,10.0,North,-9999.0,-,N/A,,Overcast,0,2014-02-06 19:35:00
1:55 PM,28.4,15.8,59,30.52,10.0,North,-9999.0,-,N/A,,Overcast,0,2014-02-06 19:55:00
2:15 PM,30.2,15.8,55,30.51,10.0,North,-9999.0,-,N/A,,Mostly Cloudy,0,2014-02-06 20:15:00
2:35 PM,32.0,15.8,51,30.51,10.0,North,-9999.0,-,N/A,Rain,Light Rain,0,2014-02-06 20:35:00
2:55 PM,30.2,15.8,55,30.50,10.0,North,-9999.0,-,N/A,Rain,Freezing Rain,0,2014-02-06 20:55:00
3:15 PM,30.2,15.8,55,30.49,10.0,North,-9999.0,-,N/A,Rain,Freezing Rain,0,2014-02-06 21:15:00
3:35 PM,30.2,15.8,55,30.46,10.0,North,-9999.0,-,N/A,,Scattered Clouds,0,2014-02-06 21:35:00
3:55 PM,30.2,15.8,55,30.46,10.0,North,-9999.0,-,N/A,,Mostly Cloudy,0,2014-02-06 21:55:00
4:15 PM,30.2,15.8,55,30.47,10.0,North,-9999.0,-,N/A,,Mostly Cloudy,0,2014-02-06 22:15:00
4:35 PM,30.2,15.8,55,30.46,10.0,North,-9999.0,-,N/A,,Overcast,0,2014-02-06 22:35:00
4:55 PM,30.2,15.8,55,30.45,10.0,North,-9999.0,-,N/A,,Overcast,0,2014-02-06 22:55:00
5:15 PM,28.4,15.8,59,30.44,10.0,North,-9999.0,-,N/A,,Mostly Cloudy,0,2014-02-06 23:15:00
5:35 PM,28.4,15.8,59,30.46,10.0,North,-9999.0,-,N/A,,Overcast,0,2014-02-06 23:35:00
5:55 PM,26.6,15.8,64,30.46,10.0,North,-9999.0,-,N/A,,Overcast,0,2014-02-06 23:55:00
6:15 PM,26.6,15.8,64,30.47,10.0,North,-9999.0,-,N/A,,Overcast,0,2014-02-07 00:15:00
6:35 PM,26.6,15.8,64,30.47,10.0,North,-9999.0,-,N/A,,Overcast,0,2014-02-07 00:35:00
6:55 PM,26.6,15.8,64,30.47,10.0,North,-9999.0,-,N/A,,Overcast,0,2014-02-07 00:55:00
7:15 PM,26.6,15.8,64,30.47,10.0,North,-9999.0,-,N/A,,Overcast,0,2014-02-07 01:15:00
7:35 PM,26.6,15.8,64,30.48,10.0,North,-9999.0,-,N/A,,Overcast,0,2014-02-07 01:35:00
7:55 PM,26.6,15.8,64,30.48,10.0,North,-9999.0,-,N/A,,Overcast,0,2014-02-07 01:55:00
8:15 PM,26.6,17.6,69,30.48,10.0,North,-9999.0,-,N/A,,Overcast,0,2014-02-07 02:15:00
8:35 PM,26.6,17.6,69,30.48,10.0,North,-9999.0,-,N/A,,Overcast,0,2014-02-07 02:35:00
8:55 PM,26.6,17.6,69,30.48,10.0,North,-9999.0,-,N/A,,Overcast,0,2014-02-07 02:55:00
9:15 PM,26.6,17.6,69,30.48,10.0,North,-9999.0,-,N/A,,Overcast,0,2014-02-07 03:15:00
9:35 PM,24.8,17.6,74,30.49,10.0,North,-9999.0,-,N/A,,Overcast,0,2014-02-07 03:35:00
9:55 PM,26.6,17.6,69,30.49,10.0,North,-9999.0,-,N/A,,Overcast,0,2014-02-07 03:55:00
10:15 PM,24.8,17.6,74,30.48,10.0,North,-9999.0,-,N/A,,Overcast,0,2014-02-07 04:15:00
10:35 PM,24.8,17.6,74,30.48,10.0,North,-9999.0,-,N/A,,Overcast,0,2014-02-07 04:35:00
10:55 PM,24.8,17.6,74,30.46,10.0,North,-9999.0,-,N/A,,Overcast,0,2014-02-07 04:55:00
11:15 PM,24.8,17.6,74,30.47,10.0,North,-9999.0,-,N/A,,Overcast,0,2014-02-07 05:15:00
11:35 PM,24.8,17.6,74,30.46,10.0,North,-9999.0,-,N/A,,Overcast,0,2014-02-07 05:35:00
11:55 PM,24.8,17.6,74,30.45,10.0,North,-9999.0,-,N/A,,Overcast,0,2014-02-07 05:55:00